Regional Weather Roundup
Issued by NWS

Home | Current Version | Previous Version | Graphics & Text | Print | Product List | Glossary On
Versions: 1 2 3 4 5 6 7 8 9 10 11 12 13 14 15 16 17 18 19 20 21 22 23 24 25 26 27 28 29 30 31 32 33 34 35 36 37 38 39 40 41 42 43 44 45 46 47 48 49 50
000
ASUS43 KLOT 031103
RWRIL

ILLINOIS REGIONAL WEATHER ROUNDUP
NATIONAL WEATHER SERVICE CHICAGO/ROMEOVILLE IL
600 AM CDT TUE MAY 03 2016

NOTE: "FAIR" INDICATES FEW OR NO CLOUDS BELOW 12,000 FEET WITH NO
SIGNIFICANT WEATHER AND/OR OBSTRUCTIONS TO VISIBILITY.

* THESE STATIONS ARE NOT UNDER NWS QUALITY CONTROL. THEY ALSO MAY NOT
  REPORT WEATHER SUCH AS PRECIPITATION OR FOG.

ILZ001-002-007-009-015-016-024-031200-
NORTHWEST ILLINOIS

CITY           SKY/WX    TMP DP  RH WIND       PRES   REMARKS
MOLINE         CLEAR     40  37  89 CALM      30.01R
STERLING*      CLEAR     43  41  93 W5        30.00S
$$

ILZ003-004-008-010-011-017-018-031200-
NORTH CENTRAL ILLINOIS

CITY           SKY/WX    TMP DP  RH WIND       PRES   REMARKS
ROCKFORD       MOCLDY    40  37  89 S3        30.00R
FREEPORT*      PTCLDY    42  37  81 SW5       30.00R
ROCHELLE*      PTCLDY    35  34  96 S3        29.99S
DE KALB*       CLEAR     43  34  70 W8        29.99S
$$

ILZ005-006-012>014-019>023-031200-
NORTHEAST ILLINOIS

CITY           SKY/WX    TMP DP  RH WIND       PRES   REMARKS
CHICAGO-OHARE  PTCLDY    41  34  76 W3        29.96S
CHICAGO-MIDWAY PTCLDY    43  34  70 CALM      29.97S
AURORA         CLEAR     37  34  89 W3        29.98S
LANSING*       CLOUDY    37  36  96 CALM      29.98S
WAUKEGAN       CLOUDY    44  35  70 VRB3      29.96S
DUPAGE AIRPORT CLEAR     37  32  82 CALM      29.97S
WHEELING       CLEAR     38  35  89 CALM      29.98S
NORTHERLY ISL    N/A     46  37  71 CALM        N/A
NORTHERLY ISL    N/A     46  37  71 CALM        N/A
$$

LMZ740>746-031200-
SOUTHERN LAKE MICHIGAN

STATION/POSITION SKY/WX   TEMP    WIND        PRES    VSBY  WAVE
                          AIR SEA DIR/SP/G                  HT/PER
                          (F)     (DEG/KT/KT) (MB)    (MI)  (FT/S)
SOUTHERN BUOY              42 41  260/  4/  4 1014.6          0
HARRISON CRIB              47     290/  4/  5   N/A
BURNHAM HARBOR             46      CALM  /  4   N/A
CALUMET HARBOR             43     250/  2/  2 1014.4S
BURNS HARBOR               47     340/  3/  7 1015.6S
MICHIGAN CITY              44     290/  3/  3   N/A
ST. JOSEPH                 44 48                N/A           1/ 4
$$

ILZ025>027-034>036-040-047-049-050-058-095>099-031200-
WEST-CENTRAL ILLINOIS

CITY           SKY/WX    TMP DP  RH WIND       PRES   REMARKS
QUINCY         CLOUDY    47  46  97 NW6       30.02S
MACOMB*        PTCLDY    44  43  96 NW5       30.04R
PITTSFIELD*    MOCLDY    49  47  93 W5        30.03S
$$

ILZ028>032-037-038-041>044-048-051>054-059>061-031200-
CENTRAL ILLINOIS

CITY           SKY/WX    TMP DP  RH WIND       PRES   REMARKS
BLOOMINGTON    CLEAR     41  41 100 W9        30.01R
DECATUR        PTCLDY    44  41  89 CALM      30.00R
PEORIA         PTCLDY    41  38  89 CALM      30.01R FOG
SPRINGFIELD    CLEAR     47  44  90 CALM      30.01R FOG
TAYLORVILLE    NOT AVBL
$$

ILZ033-039-045-046-055>057-062-063-031200-
EAST-CENTRAL ILLINOIS

CITY           SKY/WX    TMP DP  RH WIND       PRES   REMARKS
CHAMPAIGN      CLOUDY    44  42  93 CALM      29.98R
MATTOON        PTCLDY    45  41  86 NW7       29.97S
$$

ILZ079-100>102-031200-
SOUTHWEST ILLINOIS

CITY           SKY/WX    TMP DP  RH WIND       PRES   REMARKS
ALTON          CLOUDY    49  48  98 W6        30.01S
BELLEVILLE     PTCLDY    51  51  99 NW6       30.00R
CAHOKIA*       CLOUDY    53  49  86 W3        30.01S
SPARTA*        CLOUDY    51  50  95 NW3       30.01S
$$

ILZ064>066-069>071-074>076-080>082-084>086-088>090-092>094-031200-
SOUTH-CENTRAL ILLINOIS

CITY           SKY/WX    TMP DP  RH WIND       PRES   REMARKS
CARBONDALE     CLOUDY    50  48  93 W3        30.00R
MT. VERNON     MOCLDY    48  43  81 CALM      30.00R
SALEM*         CLOUDY    51  49  90 NW3       29.99R
$$

ILZ067-068-072-073-078-083-087-091-031200-
SOUTHEAST ILLINOIS

CITY           SKY/WX    TMP DP  RH WIND       PRES   REMARKS
LAWRENCEVILLE  MOCLDY    50  49  96 NW9       29.96S FOG
FLORA*         CLEAR     50  48  93 NW5       29.98R
HARRISBURG*    CLEAR     49  49  97 W5        29.99R FOG
ROBINSON*      PTCLDY    46  46  98 NW3       29.97S FOG
$$

ABBREVIATIONS USED IN REMARKS
   TC - TEMPERATURE IN CELSIUS
  WCI - WIND CHILL INDEX
   HX - HEAT INDEX
  VSB - VISIBILITY
$$




USA.gov is the U.S. government's official web portal to all federal, state and local government web resources and services.